Datum;"Wasserstand in cm";"Stationsnummer: 5935200";"Stationsname: Meyenburg";"Gew?sser: Stepenitz";"Fehlwerte: -777"
"02.04.2024 00:00";95
"02.04.2024 00:15";95
"02.04.2024 00:30";95
"02.04.2024 00:45";95
"02.04.2024 01:00";95
"02.04.2024 01:15";95
"02.04.2024 01:30";95
"02.04.2024 01:45";95
"02.04.2024 02:00";95
"02.04.2024 02:15";95
"02.04.2024 02:30";95
"02.04.2024 02:45";95
"02.04.2024 03:00";95
"02.04.2024 03:15";95
"02.04.2024 03:30";95
"02.04.2024 03:45";95
"02.04.2024 04:00";95
"02.04.2024 04:15";95
"02.04.2024 04:30";95
"02.04.2024 04:45";95
"02.04.2024 05:00";95
"02.04.2024 05:15";95
"02.04.2024 05:30";95
"02.04.2024 05:45";95
"02.04.2024 06:00";95
"02.04.2024 06:15";95
"02.04.2024 06:30";95
"02.04.2024 06:45";95
"02.04.2024 07:00";95
"02.04.2024 07:15";95
"02.04.2024 07:30";95
"02.04.2024 07:45";95
"02.04.2024 08:00";95
"02.04.2024 08:15";95
"02.04.2024 08:30";95
"02.04.2024 08:45";95
"02.04.2024 09:00";95
"02.04.2024 09:15";95
"02.04.2024 09:30";95
"02.04.2024 09:45";95
"02.04.2024 10:00";95
"02.04.2024 10:15";95
"02.04.2024 10:30";95
"02.04.2024 10:45";95
"02.04.2024 11:00";95
"02.04.2024 11:15";95
"02.04.2024 11:30";95
"02.04.2024 11:45";95
"02.04.2024 12:00";95
"02.04.2024 12:15";95
"02.04.2024 12:30";95
"02.04.2024 12:45";95
"02.04.2024 13:00";95
"02.04.2024 13:15";95
"02.04.2024 13:30";95
"02.04.2024 13:45";95
"02.04.2024 14:00";95
"02.04.2024 14:15";95
"02.04.2024 14:30";95
"02.04.2024 14:45";95
"02.04.2024 15:00";95
"02.04.2024 15:15";96
"02.04.2024 15:30";96
"02.04.2024 15:45";95
"02.04.2024 16:00";95
"02.04.2024 16:15";95
"02.04.2024 16:30";95
"02.04.2024 16:45";95
"02.04.2024 17:00";95
"02.04.2024 17:15";95
"02.04.2024 17:30";95
"02.04.2024 17:45";95
"02.04.2024 18:00";95
"02.04.2024 18:15";95
"02.04.2024 18:30";95
"02.04.2024 18:45";95
"02.04.2024 19:00";95
"02.04.2024 19:15";95
"02.04.2024 19:30";95
"02.04.2024 19:45";95
"02.04.2024 20:00";95
"02.04.2024 20:15";95
"02.04.2024 20:30";95
"02.04.2024 20:45";95
"02.04.2024 21:00";95
"02.04.2024 21:15";95
"02.04.2024 21:30";95
"02.04.2024 21:45";95
"02.04.2024 22:00";95
"02.04.2024 22:15";96
"02.04.2024 22:30";96
"02.04.2024 22:45";96
"02.04.2024 23:00";96
"02.04.2024 23:15";96
"02.04.2024 23:30";96
"02.04.2024 23:45";96
"03.04.2024 00:00";96
"03.04.2024 00:15";96
"03.04.2024 00:30";96
"03.04.2024 00:45";96
"03.04.2024 01:00";96
"03.04.2024 01:15";96
"03.04.2024 01:30";96
"03.04.2024 01:45";96
"03.04.2024 02:00";96
"03.04.2024 02:15";96
"03.04.2024 02:30";96
"03.04.2024 02:45";96
"03.04.2024 03:00";96
"03.04.2024 03:15";96
"03.04.2024 03:30";96
"03.04.2024 03:45";96
"03.04.2024 04:00";97
"03.04.2024 04:15";97
"03.04.2024 04:30";97
"03.04.2024 04:45";97
"03.04.2024 05:00";97
"03.04.2024 05:15";97
"03.04.2024 05:30";97
"03.04.2024 05:45";97
"03.04.2024 06:00";97
"03.04.2024 06:15";96
"03.04.2024 06:30";96
"03.04.2024 06:45";96
"03.04.2024 07:00";96
"03.04.2024 07:15";96
"03.04.2024 07:30";96
"03.04.2024 07:45";96
"03.04.2024 08:00";96
"03.04.2024 08:15";96
"03.04.2024 08:30";96
"03.04.2024 08:45";96
"03.04.2024 09:00";96
"03.04.2024 09:15";96
"03.04.2024 09:30";96
"03.04.2024 09:45";96
"03.04.2024 10:00";96
"03.04.2024 10:15";96
"03.04.2024 10:30";96
"03.04.2024 10:45";96
"03.04.2024 11:00";96
"03.04.2024 11:15";96
"03.04.2024 11:30";96
"03.04.2024 11:45";96
"03.04.2024 12:00";96
"03.04.2024 12:15";96
"03.04.2024 12:30";96
"03.04.2024 12:45";96
"03.04.2024 13:00";96
"03.04.2024 13:15";96
"03.04.2024 13:30";96
"03.04.2024 13:45";96
"03.04.2024 14:00";96
"03.04.2024 14:15";96
"03.04.2024 14:30";96
"03.04.2024 14:45";96
"03.04.2024 15:00";96
"03.04.2024 15:15";96
"03.04.2024 15:30";96
"03.04.2024 15:45";96
"03.04.2024 16:00";96
"03.04.2024 16:15";96
"03.04.2024 16:30";96
"03.04.2024 16:45";96
"03.04.2024 17:00";96
"03.04.2024 17:15";96
"03.04.2024 17:30";96
"03.04.2024 17:45";96
"03.04.2024 18:00";96
"03.04.2024 18:15";96
"03.04.2024 18:30";96
"03.04.2024 18:45";97
"03.04.2024 19:00";97
"03.04.2024 19:15";97
"03.04.2024 19:30";97
"03.04.2024 19:45";97
"03.04.2024 20:00";97
"03.04.2024 20:15";97
"03.04.2024 20:30";97
"03.04.2024 20:45";97
"03.04.2024 21:00";97
"03.04.2024 21:15";97
"03.04.2024 21:30";97
"03.04.2024 21:45";97
"03.04.2024 22:00";97
"03.04.2024 22:15";97
"03.04.2024 22:30";97
"03.04.2024 22:45";97
"03.04.2024 23:00";97
"03.04.2024 23:15";98
"03.04.2024 23:30";98
"03.04.2024 23:45";98
"04.04.2024 00:00";98
"04.04.2024 00:15";98
"04.04.2024 00:30";98
"04.04.2024 00:45";98
"04.04.2024 01:00";98
"04.04.2024 01:15";98
"04.04.2024 01:30";98
"04.04.2024 01:45";98
"04.04.2024 02:00";98
"04.04.2024 02:15";98
"04.04.2024 02:30";98
"04.04.2024 02:45";98
"04.04.2024 03:00";98
"04.04.2024 03:15";98
"04.04.2024 03:30";98
"04.04.2024 03:45";98
"04.04.2024 04:00";98
"04.04.2024 04:15";98
"04.04.2024 04:30";98
"04.04.2024 04:45";98
"04.04.2024 05:00";98
"04.04.2024 05:15";98
"04.04.2024 05:30";98
"04.04.2024 05:45";98
"04.04.2024 06:00";98
"04.04.2024 06:15";99
"04.04.2024 06:30";99
"04.04.2024 06:45";99
"04.04.2024 07:00";99
"04.04.2024 07:15";99
"04.04.2024 07:30";99
"04.04.2024 07:45";99
"04.04.2024 08:00";99
"04.04.2024 08:15";99
"04.04.2024 08:30";99
"04.04.2024 08:45";99
"04.04.2024 09:00";99
"04.04.2024 09:15";99
"04.04.2024 09:30";99
"04.04.2024 09:45";99
"04.04.2024 10:00";99
"04.04.2024 10:15";99
"04.04.2024 10:30";98
"04.04.2024 10:45";98
"04.04.2024 11:00";98
"04.04.2024 11:15";98
"04.04.2024 11:30";98
"04.04.2024 11:45";98
"04.04.2024 12:00";98
"04.04.2024 12:15";98
"04.04.2024 12:30";98
"04.04.2024 12:45";98
"04.04.2024 13:00";98
"04.04.2024 13:15";98
"04.04.2024 13:30";99
"04.04.2024 13:45";99
"04.04.2024 14:00";99
"04.04.2024 14:15";99
"04.04.2024 14:30";99
"04.04.2024 14:45";99
"04.04.2024 15:00";99
"04.04.2024 15:15";99
"04.04.2024 15:30";99
"04.04.2024 15:45";99
"04.04.2024 16:00";99
"04.04.2024 16:15";99
"04.04.2024 16:30";99
"04.04.2024 16:45";99
"04.04.2024 17:00";99
"04.04.2024 17:15";99
"04.04.2024 17:30";100
"04.04.2024 17:45";103
"04.04.2024 18:00";101
"04.04.2024 18:15";101
"04.04.2024 18:30";102
"04.04.2024 18:45";102
"04.04.2024 19:00";102
"04.04.2024 19:15";102
"04.04.2024 19:30";101
"04.04.2024 19:45";101
"04.04.2024 20:00";102
"04.04.2024 20:15";102
"04.04.2024 20:30";102
"04.04.2024 20:45";102
"04.04.2024 21:00";102
"04.04.2024 21:15";103
"04.04.2024 21:30";103
"04.04.2024 21:45";103
"04.04.2024 22:00";103
"04.04.2024 22:15";103
"04.04.2024 22:30";103
"04.04.2024 22:45";103
"04.04.2024 23:00";103
"04.04.2024 23:15";103
"04.04.2024 23:30";103
"04.04.2024 23:45";103
"05.04.2024 00:00";103
"05.04.2024 00:15";103
"05.04.2024 00:30";103
"05.04.2024 00:45";103
"05.04.2024 01:00";103
"05.04.2024 01:15";103
"05.04.2024 01:30";103
"05.04.2024 01:45";103
"05.04.2024 02:00";103
"05.04.2024 02:15";103
"05.04.2024 02:30";103
"05.04.2024 02:45";103
"05.04.2024 03:00";103
"05.04.2024 03:15";103
"05.04.2024 03:30";103
"05.04.2024 03:45";103
"05.04.2024 04:00";103
"05.04.2024 04:15";103
"05.04.2024 04:30";103
"05.04.2024 04:45";102
"05.04.2024 05:00";102
"05.04.2024 05:15";102
"05.04.2024 05:30";102
"05.04.2024 05:45";102
"05.04.2024 06:00";102
"05.04.2024 06:15";102
"05.04.2024 06:30";102
"05.04.2024 06:45";102
"05.04.2024 07:00";102
"05.04.2024 07:15";102
"05.04.2024 07:30";102
"05.04.2024 07:45";102
"05.04.2024 08:00";102
"05.04.2024 08:15";102
"05.04.2024 08:30";102
"05.04.2024 08:45";102
"05.04.2024 09:00";101
"05.04.2024 09:15";101
"05.04.2024 09:30";101
"05.04.2024 09:45";101
"05.04.2024 10:00";101
"05.04.2024 10:15";101
"05.04.2024 10:30";101
"05.04.2024 10:45";101
"05.04.2024 11:00";101
"05.04.2024 11:15";101
"05.04.2024 11:30";101
"05.04.2024 11:45";101
"05.04.2024 12:00";101
"05.04.2024 12:15";101
"05.04.2024 12:30";101
"05.04.2024 12:45";101
"05.04.2024 13:00";101
"05.04.2024 13:15";101
"05.04.2024 13:30";100
"05.04.2024 13:45";101
"05.04.2024 14:00";101
"05.04.2024 14:15";101
"05.04.2024 14:30";101
"05.04.2024 14:45";101
"05.04.2024 15:00";101
"05.04.2024 15:15";101
"05.04.2024 15:30";101
"05.04.2024 15:45";101
"05.04.2024 16:00";101
"05.04.2024 16:15";101
"05.04.2024 16:30";101
"05.04.2024 16:45";101
"05.04.2024 17:00";101
"05.04.2024 17:15";101
"05.04.2024 17:30";102
"05.04.2024 17:45";102
"05.04.2024 18:00";102
"05.04.2024 18:15";102
"05.04.2024 18:30";102
"05.04.2024 18:45";102
"05.04.2024 19:00";102
"05.04.2024 19:15";102
"05.04.2024 19:30";102
"05.04.2024 19:45";102
"05.04.2024 20:00";102
"05.04.2024 20:15";102
"05.04.2024 20:30";102
"05.04.2024 20:45";102
"05.04.2024 21:00";102
"05.04.2024 21:15";102
"05.04.2024 21:30";102
"05.04.2024 21:45";102
"05.04.2024 22:00";102
"05.04.2024 22:15";102
"05.04.2024 22:30";102
"05.04.2024 22:45";102
"05.04.2024 23:00";102
"05.04.2024 23:15";102
"05.04.2024 23:30";102
"05.04.2024 23:45";102
"06.04.2024 00:00";102
"06.04.2024 00:15";102
"06.04.2024 00:30";102
"06.04.2024 00:45";102
"06.04.2024 01:00";102
"06.04.2024 01:15";102
"06.04.2024 01:30";102
"06.04.2024 01:45";102
"06.04.2024 02:00";102
"06.04.2024 02:15";102
"06.04.2024 02:30";102
"06.04.2024 02:45";102
"06.04.2024 03:00";102
"06.04.2024 03:15";102
"06.04.2024 03:30";102
"06.04.2024 03:45";102
"06.04.2024 04:00";102
"06.04.2024 04:15";102
"06.04.2024 04:30";102
"06.04.2024 04:45";102
"06.04.2024 05:00";102
"06.04.2024 05:15";101
"06.04.2024 05:30";101
"06.04.2024 05:45";101
"06.04.2024 06:00";101
"06.04.2024 06:15";101
"06.04.2024 06:30";101
"06.04.2024 06:45";101
"06.04.2024 07:00";101
"06.04.2024 07:15";101
"06.04.2024 07:30";101
"06.04.2024 07:45";101
"06.04.2024 08:00";101
"06.04.2024 08:15";101
"06.04.2024 08:30";101
"06.04.2024 08:45";101
"06.04.2024 09:00";101
"06.04.2024 09:15";101
"06.04.2024 09:30";101
"06.04.2024 09:45";101
"06.04.2024 10:00";101
"06.04.2024 10:15";101
"06.04.2024 10:30";101
"06.04.2024 10:45";101
"06.04.2024 11:00";101
"06.04.2024 11:15";101
"06.04.2024 11:30";101
"06.04.2024 11:45";101
"06.04.2024 12:00";101
"06.04.2024 12:15";101
"06.04.2024 12:30";101
"06.04.2024 12:45";101
"06.04.2024 13:00";101
"06.04.2024 13:15";101
"06.04.2024 13:30";101
"06.04.2024 13:45";101
"06.04.2024 14:00";101
"06.04.2024 14:15";101
"06.04.2024 14:30";101
"06.04.2024 14:45";101
"06.04.2024 15:00";101
"06.04.2024 15:15";101
"06.04.2024 15:30";101
"06.04.2024 15:45";101
"06.04.2024 16:00";101
"06.04.2024 16:15";101
"06.04.2024 16:30";101
"06.04.2024 16:45";101
"06.04.2024 17:00";101
"06.04.2024 17:15";101
"06.04.2024 17:30";101
"06.04.2024 17:45";101
"06.04.2024 18:00";100
"06.04.2024 18:15";100
"06.04.2024 18:30";100
"06.04.2024 18:45";100
"06.04.2024 19:00";100
"06.04.2024 19:15";100
"06.04.2024 19:30";100
"06.04.2024 19:45";100
"06.04.2024 20:00";100
"06.04.2024 20:15";100
"06.04.2024 20:30";100
"06.04.2024 20:45";100
"06.04.2024 21:00";100
"06.04.2024 21:15";100
"06.04.2024 21:30";100
"06.04.2024 21:45";100
"06.04.2024 22:00";100
"06.04.2024 22:15";100
"06.04.2024 22:30";100
"06.04.2024 22:45";100
"06.04.2024 23:00";100
"06.04.2024 23:15";100
"06.04.2024 23:30";100
"06.04.2024 23:45";100
"07.04.2024 00:00";100
"07.04.2024 00:15";100
"07.04.2024 00:30";100
"07.04.2024 00:45";100
"07.04.2024 01:00";100
"07.04.2024 01:15";100
"07.04.2024 01:30";100
"07.04.2024 01:45";100
"07.04.2024 02:00";100
"07.04.2024 02:15";100
"07.04.2024 02:30";100
"07.04.2024 02:45";100
"07.04.2024 03:00";100
"07.04.2024 03:15";100
"07.04.2024 03:30";100
"07.04.2024 03:45";100
"07.04.2024 04:00";100
"07.04.2024 04:15";100
"07.04.2024 04:30";100
"07.04.2024 04:45";100
"07.04.2024 05:00";100
"07.04.2024 05:15";100
"07.04.2024 05:30";100
"07.04.2024 05:45";100
"07.04.2024 06:00";100
"07.04.2024 06:15";100
"07.04.2024 06:30";100
"07.04.2024 06:45";100
"07.04.2024 07:00";100
"07.04.2024 07:15";100
"07.04.2024 07:30";100
"07.04.2024 07:45";100
"07.04.2024 08:00";100
"07.04.2024 08:15";100
"07.04.2024 08:30";100
"07.04.2024 08:45";100
"07.04.2024 09:00";100
"07.04.2024 09:15";100
"07.04.2024 09:30";100
"07.04.2024 09:45";100
"07.04.2024 10:00";100
"07.04.2024 10:15";100
"07.04.2024 10:30";100
"07.04.2024 10:45";100
"07.04.2024 11:00";100
"07.04.2024 11:15";100
"07.04.2024 11:30";100
"07.04.2024 11:45";100
"07.04.2024 12:00";100
"07.04.2024 12:15";100
"07.04.2024 12:30";100
"07.04.2024 12:45";100
"07.04.2024 13:00";100
"07.04.2024 13:15";100
"07.04.2024 13:30";100
"07.04.2024 13:45";100
"07.04.2024 14:00";100
"07.04.2024 14:15";100
"07.04.2024 14:30";99
"07.04.2024 14:45";99
"07.04.2024 15:00";99
"07.04.2024 15:15";99
"07.04.2024 15:30";99
"07.04.2024 15:45";99
"07.04.2024 16:00";99
"07.04.2024 16:15";99
"07.04.2024 16:30";99
"07.04.2024 16:45";99
"07.04.2024 17:00";99
"07.04.2024 17:15";99
"07.04.2024 17:30";99
"07.04.2024 17:45";99
"07.04.2024 18:00";99
"07.04.2024 18:15";99
"07.04.2024 18:30";99
"07.04.2024 18:45";99
"07.04.2024 19:00";99
"07.04.2024 19:15";99
"07.04.2024 19:30";99
"07.04.2024 19:45";99
"07.04.2024 20:00";99
"07.04.2024 20:15";99
"07.04.2024 20:30";99
"07.04.2024 20:45";99
"07.04.2024 21:00";99
"07.04.2024 21:15";99
"07.04.2024 21:30";99
"07.04.2024 21:45";99
"07.04.2024 22:00";99
"07.04.2024 22:15";99
"07.04.2024 22:30";99
"07.04.2024 22:45";99
"07.04.2024 23:00";99
"07.04.2024 23:15";99
"07.04.2024 23:30";99
"07.04.2024 23:45";99
"08.04.2024 00:00";99
"08.04.2024 00:15";99
"08.04.2024 00:30";99
"08.04.2024 00:45";99
"08.04.2024 01:00";99
"08.04.2024 01:15";99
"08.04.2024 01:30";99
"08.04.2024 01:45";99
"08.04.2024 02:00";99
"08.04.2024 02:15";99
"08.04.2024 02:30";99
"08.04.2024 02:45";99
"08.04.2024 03:00";99
"08.04.2024 03:15";99
"08.04.2024 03:30";99
"08.04.2024 03:45";99
"08.04.2024 04:00";99
"08.04.2024 04:15";99
"08.04.2024 04:30";99
"08.04.2024 04:45";99
"08.04.2024 05:00";99
"08.04.2024 05:15";99
"08.04.2024 05:30";99
"08.04.2024 05:45";99
"08.04.2024 06:00";99
"08.04.2024 06:15";99
"08.04.2024 06:30";99
"08.04.2024 06:45";99
"08.04.2024 07:00";100
"08.04.2024 07:15";100
"08.04.2024 07:30";100
"08.04.2024 07:45";100
"08.04.2024 08:00";100
"08.04.2024 08:15";100
"08.04.2024 08:30";99
"08.04.2024 08:45";99
"08.04.2024 09:00";99
"08.04.2024 09:15";99
"08.04.2024 09:30";99
"08.04.2024 09:45";99
"08.04.2024 10:00";99
"08.04.2024 10:15";99
"08.04.2024 10:30";99
"08.04.2024 10:45";99
"08.04.2024 11:00";99
"08.04.2024 11:15";99
"08.04.2024 11:30";99
"08.04.2024 11:45";99
"08.04.2024 12:00";99
"08.04.2024 12:15";99
"08.04.2024 12:30";99
"08.04.2024 12:45";99
"08.04.2024 13:00";99
"08.04.2024 13:15";99
"08.04.2024 13:30";99
"08.04.2024 13:45";99
"08.04.2024 14:00";99
"08.04.2024 14:15";99
"08.04.2024 14:30";99
"08.04.2024 14:45";99
"08.04.2024 15:00";99
"08.04.2024 15:15";99
"08.04.2024 15:30";99
"08.04.2024 15:45";99
"08.04.2024 16:00";99
"08.04.2024 16:15";99
"08.04.2024 16:30";99
"08.04.2024 16:45";99
"08.04.2024 17:00";99
"08.04.2024 17:15";99
"08.04.2024 17:30";99
"08.04.2024 17:45";99
"08.04.2024 18:00";99
"08.04.2024 18:15";99
"08.04.2024 18:30";99
"08.04.2024 18:45";99
"08.04.2024 19:00";99
"08.04.2024 19:15";99
"08.04.2024 19:30";99
"08.04.2024 19:45";99
"08.04.2024 20:00";99
"08.04.2024 20:15";99
"08.04.2024 20:30";99
"08.04.2024 20:45";99
"08.04.2024 21:00";99
"08.04.2024 21:15";99
"08.04.2024 21:30";99
"08.04.2024 21:45";99
"08.04.2024 22:00";99
"08.04.2024 22:15";99
"08.04.2024 22:30";99
"08.04.2024 22:45";99
"08.04.2024 23:00";99
"08.04.2024 23:15";99
"08.04.2024 23:30";99
"08.04.2024 23:45";99
"09.04.2024 00:00";99
"09.04.2024 00:15";99
"09.04.2024 00:30";99
"09.04.2024 00:45";99
"09.04.2024 01:00";99
"09.04.2024 01:15";99
"09.04.2024 01:30";99
"09.04.2024 01:45";99
"09.04.2024 02:00";99
"09.04.2024 02:15";99
"09.04.2024 02:30";99
"09.04.2024 02:45";99
"09.04.2024 03:00";99
"09.04.2024 03:15";99
"09.04.2024 03:30";99
"09.04.2024 03:45";99
"09.04.2024 04:00";99
"09.04.2024 04:15";99
"09.04.2024 04:30";99
"09.04.2024 04:45";99
"09.04.2024 05:00";99
"09.04.2024 05:15";99
"09.04.2024 05:30";99
"09.04.2024 05:45";99
"09.04.2024 06:00";99
"09.04.2024 06:15";99
"09.04.2024 06:30";99
"09.04.2024 06:45";99
"09.04.2024 07:00";99
"09.04.2024 07:15";99
"09.04.2024 07:30";99
"09.04.2024 07:45";99
"09.04.2024 08:00";99
"09.04.2024 08:15";99
"09.04.2024 08:30";99
"09.04.2024 08:45";99
"09.04.2024 09:00";99
"09.04.2024 09:15";99
"09.04.2024 09:30";99
"09.04.2024 09:45";99
"09.04.2024 10:00";99
"09.04.2024 10:15";99
"09.04.2024 10:30";99
"09.04.2024 10:45";99
"09.04.2024 11:00";99
"09.04.2024 11:15";99
"09.04.2024 11:30";99
"09.04.2024 11:45";99
"09.04.2024 12:00";99
"09.04.2024 12:15";99
"09.04.2024 12:30";99
"09.04.2024 12:45";99
"09.04.2024 13:00";99
"09.04.2024 13:15";98
"09.04.2024 13:30";98
"09.04.2024 13:45";98
"09.04.2024 14:00";98
"09.04.2024 14:15";98
"09.04.2024 14:30";98
"09.04.2024 14:45";98
"09.04.2024 15:00";98
"09.04.2024 15:15";98
"09.04.2024 15:30";98
"09.04.2024 15:45";98
"09.04.2024 16:00";98
"09.04.2024 16:15";98
"09.04.2024 16:30";98
"09.04.2024 16:45";98
"09.04.2024 17:00";98
"09.04.2024 17:15";98
"09.04.2024 17:30";98
"09.04.2024 17:45";98
"09.04.2024 18:00";98
"09.04.2024 18:15";98
"09.04.2024 18:30";98
"09.04.2024 18:45";98
"09.04.2024 19:00";98
"09.04.2024 19:15";98
"09.04.2024 19:30";98
"09.04.2024 19:45";98
"09.04.2024 20:00";98
"09.04.2024 20:15";98
"09.04.2024 20:30";98
"09.04.2024 20:45";98
"09.04.2024 21:00";98
"09.04.2024 21:15";98
"09.04.2024 21:30";98
"09.04.2024 21:45";98
"09.04.2024 22:00";98
"09.04.2024 22:15";98
"09.04.2024 22:30";98
"09.04.2024 22:45";98
"09.04.2024 23:00";98
"09.04.2024 23:15";98
"09.04.2024 23:30";98
"09.04.2024 23:45";98
"10.04.2024 00:00";98
"10.04.2024 00:15";98
"10.04.2024 00:30";98
"10.04.2024 00:45";98
"10.04.2024 01:00";98
"10.04.2024 01:15";98
"10.04.2024 01:30";98
"10.04.2024 01:45";98
"10.04.2024 02:00";98
"10.04.2024 02:15";98
"10.04.2024 02:30";98
"10.04.2024 02:45";98
"10.04.2024 03:00";98
"10.04.2024 03:15";98
"10.04.2024 03:30";98
"10.04.2024 03:45";98
"10.04.2024 04:00";98
"10.04.2024 04:15";98
"10.04.2024 04:30";98
"10.04.2024 04:45";98
"10.04.2024 05:00";98
"10.04.2024 05:15";98
"10.04.2024 05:30";98
"10.04.2024 05:45";98
"10.04.2024 06:00";98
"10.04.2024 06:15";98
"10.04.2024 06:30";98
"10.04.2024 06:45";98
"10.04.2024 07:00";98
"10.04.2024 07:15";98
"10.04.2024 07:30";98
"10.04.2024 07:45";98
"10.04.2024 08:00";98
"10.04.2024 08:15";98
"10.04.2024 08:30";98
"10.04.2024 08:45";97
"10.04.2024 09:00";97
"10.04.2024 09:15";97
"10.04.2024 09:30";97
"10.04.2024 09:45";97
"10.04.2024 10:00";97
"10.04.2024 10:15";97
"10.04.2024 10:30";97
"10.04.2024 10:45";97
"10.04.2024 11:00";97
"10.04.2024 11:15";97
"10.04.2024 11:30";97
"10.04.2024 11:45";97
"10.04.2024 12:00";97
"10.04.2024 12:15";97
"10.04.2024 12:30";97
"10.04.2024 12:45";97
"10.04.2024 13:00";97
"10.04.2024 13:15";97
"10.04.2024 13:30";97
"10.04.2024 13:45";97
"10.04.2024 14:00";97
"10.04.2024 14:15";97
"10.04.2024 14:30";97
"10.04.2024 14:45";97
"10.04.2024 15:00";97
"10.04.2024 15:15";97
"10.04.2024 15:30";97
"10.04.2024 15:45";97
"10.04.2024 16:00";97
"10.04.2024 16:15";97
"10.04.2024 16:30";97
"10.04.2024 16:45";97
"10.04.2024 17:00";97
"10.04.2024 17:15";97
"10.04.2024 17:30";97
"10.04.2024 17:45";97
"10.04.2024 18:00";97
"10.04.2024 18:15";97
"10.04.2024 18:30";97
"10.04.2024 18:45";97
"10.04.2024 19:00";97
"10.04.2024 19:15";97
"10.04.2024 19:30";97
"10.04.2024 19:45";97
"10.04.2024 20:00";97
"10.04.2024 20:15";97
"10.04.2024 20:30";97
"10.04.2024 20:45";97
"10.04.2024 21:00";97
"10.04.2024 21:15";97
"10.04.2024 21:30";97
"10.04.2024 21:45";97
"10.04.2024 22:00";97
"10.04.2024 22:15";97
"10.04.2024 22:30";97
"10.04.2024 22:45";97
"10.04.2024 23:00";97
"10.04.2024 23:15";97
"10.04.2024 23:30";97
"10.04.2024 23:45";97
"11.04.2024 00:00";97
"11.04.2024 00:15";97
"11.04.2024 00:30";97
"11.04.2024 00:45";97
"11.04.2024 01:00";97
"11.04.2024 01:15";97
"11.04.2024 01:30";97
"11.04.2024 01:45";97
"11.04.2024 02:00";97
"11.04.2024 02:15";97
"11.04.2024 02:30";97
"11.04.2024 02:45";97
"11.04.2024 03:00";97
"11.04.2024 03:15";97
"11.04.2024 03:30";97
"11.04.2024 03:45";97
"11.04.2024 04:00";97
"11.04.2024 04:15";97
"11.04.2024 04:30";97
"11.04.2024 04:45";97
"11.04.2024 05:00";97
"11.04.2024 05:15";97
"11.04.2024 05:30";97
"11.04.2024 05:45";97
"11.04.2024 06:00";97
"11.04.2024 06:15";97
"11.04.2024 06:30";97
"11.04.2024 06:45";97
"11.04.2024 07:00";97
"11.04.2024 07:15";97
"11.04.2024 07:30";97
"11.04.2024 07:45";97
"11.04.2024 08:00";97
"11.04.2024 08:15";97
"11.04.2024 08:30";97
"11.04.2024 08:45";97
"11.04.2024 09:00";97
"11.04.2024 09:15";97
"11.04.2024 09:30";97
"11.04.2024 09:45";97
"11.04.2024 10:00";97
"11.04.2024 10:15";97
"11.04.2024 10:30";97
"11.04.2024 10:45";97
"11.04.2024 11:00";97
"11.04.2024 11:15";97
"11.04.2024 11:30";97
"11.04.2024 11:45";97
"11.04.2024 12:00";97
"11.04.2024 12:15";97
"11.04.2024 12:30";97
"11.04.2024 12:45";97
"11.04.2024 13:00";97
"11.04.2024 13:15";97
"11.04.2024 13:30";97
"11.04.2024 13:45";97
"11.04.2024 14:00";97
"11.04.2024 14:15";97
"11.04.2024 14:30";97
"11.04.2024 14:45";97
"11.04.2024 15:00";97
"11.04.2024 15:15";97
"11.04.2024 15:30";97
"11.04.2024 15:45";97
"11.04.2024 16:00";97
"11.04.2024 16:15";97
"11.04.2024 16:30";97
"11.04.2024 16:45";97
"11.04.2024 17:00";97
"11.04.2024 17:15";97
"11.04.2024 17:30";97
"11.04.2024 17:45";97
"11.04.2024 18:00";97
"11.04.2024 18:15";97
"11.04.2024 18:30";97
"11.04.2024 18:45";97
"11.04.2024 19:00";97
"11.04.2024 19:15";97
"11.04.2024 19:30";97
"11.04.2024 19:45";97
"11.04.2024 20:00";97
"11.04.2024 20:15";97
"11.04.2024 20:30";97
"11.04.2024 20:45";97
"11.04.2024 21:00";97
"11.04.2024 21:15";97
"11.04.2024 21:30";97
"11.04.2024 21:45";97
"11.04.2024 22:00";97
"11.04.2024 22:15";97
"11.04.2024 22:30";97
"11.04.2024 22:45";97
"11.04.2024 23:00";97
"11.04.2024 23:15";97
"11.04.2024 23:30";97
"11.04.2024 23:45";97
"12.04.2024 00:00";97
"12.04.2024 00:15";97
"12.04.2024 00:30";97
"12.04.2024 00:45";97
"12.04.2024 01:00";97
"12.04.2024 01:15";97
"12.04.2024 01:30";97
"12.04.2024 01:45";97
"12.04.2024 02:00";97
"12.04.2024 02:15";97
"12.04.2024 02:30";97
"12.04.2024 02:45";97
"12.04.2024 03:00";97
"12.04.2024 03:15";97
"12.04.2024 03:30";97
"12.04.2024 03:45";97
"12.04.2024 04:00";97
"12.04.2024 04:15";97
"12.04.2024 04:30";97
"12.04.2024 04:45";97
"12.04.2024 05:00";97
"12.04.2024 05:15";97
"12.04.2024 05:30";97
"12.04.2024 05:45";97
"12.04.2024 06:00";97
"12.04.2024 06:15";97
"12.04.2024 06:30";97
"12.04.2024 06:45";97
"12.04.2024 07:00";97
"12.04.2024 07:15";96
"12.04.2024 07:30";96
"12.04.2024 07:45";96
"12.04.2024 08:00";96
"12.04.2024 08:15";96
"12.04.2024 08:30";96
"12.04.2024 08:45";97
"12.04.2024 09:00";97
"12.04.2024 09:15";97
"12.04.2024 09:30";97
"12.04.2024 09:45";97
"12.04.2024 10:00";97
"12.04.2024 10:15";97
"12.04.2024 10:30";97
"12.04.2024 10:45";97
"12.04.2024 11:00";97
"12.04.2024 11:15";97
"12.04.2024 11:30";97
"12.04.2024 11:45";97
"12.04.2024 12:00";97
"12.04.2024 12:15";97
"12.04.2024 12:30";97
"12.04.2024 12:45";97
"12.04.2024 13:00";97
"12.04.2024 13:15";97
"12.04.2024 13:30";97
"12.04.2024 13:45";97
"12.04.2024 14:00";97
"12.04.2024 14:15";96
"12.04.2024 14:30";96
"12.04.2024 14:45";96
"12.04.2024 15:00";96
"12.04.2024 15:15";96
"12.04.2024 15:30";96
"12.04.2024 15:45";96
"12.04.2024 16:00";96
"12.04.2024 16:15";96
"12.04.2024 16:30";96
"12.04.2024 16:45";96
"12.04.2024 17:00";96
"12.04.2024 17:15";96
"12.04.2024 17:30";96
"12.04.2024 17:45";97
"12.04.2024 18:00";97
"12.04.2024 18:15";97
"12.04.2024 18:30";97
"12.04.2024 18:45";97
"12.04.2024 19:00";97
"12.04.2024 19:15";97
"12.04.2024 19:30";97
"12.04.2024 19:45";97
"12.04.2024 20:00";97
"12.04.2024 20:15";97
"12.04.2024 20:30";97
"12.04.2024 20:45";97
"12.04.2024 21:00";97
"12.04.2024 21:15";97
"12.04.2024 21:30";97
"12.04.2024 21:45";97
"12.04.2024 22:00";97
"12.04.2024 22:15";97
"12.04.2024 22:30";97
"12.04.2024 22:45";97
"12.04.2024 23:00";97
"12.04.2024 23:15";97
"12.04.2024 23:30";97
"12.04.2024 23:45";97
"13.04.2024 00:00";97
"13.04.2024 00:15";97
"13.04.2024 00:30";97
"13.04.2024 00:45";97
"13.04.2024 01:00";97
"13.04.2024 01:15";97
"13.04.2024 01:30";97
"13.04.2024 01:45";97
"13.04.2024 02:00";97
"13.04.2024 02:15";97
"13.04.2024 02:30";97
"13.04.2024 02:45";97
"13.04.2024 03:00";97
"13.04.2024 03:15";97
"13.04.2024 03:30";97
"13.04.2024 03:45";97